[[{"header":{"parameterUnit":"m.s-1","parameterCategory":1,"la1":30.2991,"la2":30.254,"lo1":-89.0895,"lo2":-89.0444,"dy":0.0017,"dx":0.0017,"nx":28,"ny":28,"refTime":"2023-08-14T03:00:00:Z","depth":0,"parameterNumber":2,"parameterNumberName":"U-component_of_WINDS"},"data":[0,0,0,0,0,0,0,0,0,0,0,0,0,0,0,0,0,0,0,0,0,0,0,0,0,0,0,0,0,0,0,0,0,0,0,0,0,0,0,0,0,0,0,0,0,0,0,0,0,0,0,0,0,0,0,0,0,0,4.3998,4.3999,0,4.403,4.403,4.4031,4.3941,4.3938,4.3936,4.3933,4.3965,4.3968,4.3971,0,0,0,0,0,0,0,0,0,0,0,0,0,4.3857,4.386,4.3998,4.3999,4.3999,4.403,4.403,4.4031,4.3942,4.3938,4.3935,4.3932,4.3964,4.3968,4.3972,0,0,0,0,0,0,0,0,0,0,0,0,0,4.3907,4.3861,4.3998,4.3958,4.3955,4.403,4.403,4.4031,4.3942,4.3938,4.3934,4.393,4.3962,4.3967,4.3972,4.4087,0,0,4.3988,4.399,0,0,0,0,0,0,0,0,4.3904,4.3912,4.3964,4.3961,4.3958,4.3977,4.3992,4.405,4.3943,4.3947,4.3933,4.3928,4.3972,4.3976,4.3991,4.4088,4.409,4.3988,4.3992,4.3994,4.3995,0,0,0,0,0,0,0,4.3901,4.391,4.4011,4.3964,4.3961,4.3938,4.394,4.4003,4.3983,4.3946,4.394,4.3945,4.397,4.3987,4.3991,4.409,4.3988,4.3993,4.3996,4.3998,4.4279,4.4283,0,0,0,0,0,0,4.3903,4.3908,4.401,4.4012,4.392,4.3944,4.3946,4.3975,4.3982,4.3979,4.3949,4.3941,4.398,4.3986,4.3992,4.4123,4.3994,4.3998,4.4001,4.4274,4.428,4.4284,0,0,0,0,0,0,4.39,4.3913,4.4008,4.3958,4.3968,4.3951,4.3984,4.3978,4.3995,4.3983,4.3979,4.397,4.3977,4.3985,4.4063,4.4123,4.4001,4.4005,4.4269,4.4276,4.4282,4.4388,0,0,0,0,0,0,4.3896,4.3912,4.3956,4.396,4.3972,4.408,4.3987,4.3982,4.4004,4.3994,4.4002,4.3999,4.3974,4.4056,4.4068,4.4128,4.4009,4.4264,4.4272,4.428,4.4379,4.4398,4.4413,0,0,0,0,0,4.3892,4.3986,4.3959,4.3972,4.4026,4.4084,4.409,4.406,4.4009,4.4052,4.4045,4.3999,4.4116,4.4065,4.4078,4.414,4.426,4.427,4.4279,4.4372,4.4394,4.4413,0,0,0,0,0,0,4.399,4.3986,4.3956,4.4054,4.407,4.4068,4.4122,4.4085,4.4116,4.4105,4.4066,4.4068,4.4153,4.4155,4.4098,4.4249,4.4179,4.4192,4.4244,4.4266,4.4282,4.4278,4.4014,0,0,0,0,0,4.4024,4.4071,4.4064,4.4151,4.4161,4.4141,4.4164,4.4139,4.4154,4.416,4.4158,4.4174,4.4213,4.424,4.4276,4.438,4.4379,4.4429,4.4446,4.4461,4.4471,4.4522,4.4543,4.4317,4.4317,4.4316,0,0,4.4092,4.4096,4.4128,4.4171,4.418,4.4228,4.4147,4.4202,4.4237,4.4169,4.4241,4.4241,4.4255,4.4345,4.4385,4.4349,4.4534,4.4473,4.4484,4.4487,4.4534,4.4556,4.4575,4.4323,4.4322,4.4321,0,0,4.4241,4.4251,4.4322,4.4333,4.4347,4.4333,4.435,4.4354,4.4351,4.4423,4.4372,4.4413,4.4483,4.4494,4.4509,4.4661,4.4619,4.4675,4.4762,4.4812,4.483,4.4846,4.4896,4.4915,4.4686,4.4686,4.4686,0,4.4324,4.4396,4.4363,4.4421,4.444,4.4381,4.4451,4.4463,4.449,4.4503,4.4464,4.4548,4.4554,4.4644,4.4681,4.4697,4.4713,4.4672,4.4831,4.4846,4.486,4.4907,4.4926,4.4692,4.4692,4.4691,4.469,0,4.4495,4.4546,4.4601,4.4627,4.4653,4.4717,4.4693,4.4723,4.4696,4.4685,4.4758,4.4764,4.4798,4.4818,4.4794,4.4905,4.4881,4.4837,4.4764,4.4888,4.4931,4.495,4.4701,4.4699,4.4697,4.4696,0,0,4.4706,4.4711,4.4732,4.4741,4.4753,4.479,4.4852,4.4885,4.4909,4.493,4.4977,4.5038,4.4996,4.5013,4.4989,4.5034,4.5148,4.4983,4.4983,4.501,4.5267,4.5297,4.5318,4.5122,4.5126,4.5128,4.5264,0,4.4849,4.4952,4.4924,4.5027,4.507,4.5015,4.5067,4.5079,4.5071,4.5106,4.5098,4.5139,4.5083,4.5092,4.5134,4.5126,4.5199,4.5116,4.5163,4.5165,4.5157,4.5342,4.5374,4.5502,4.5281,4.5284,4.5286,0,4.5029,4.5055,4.5162,4.5163,4.518,4.5228,4.5254,4.529,4.5302,4.5293,4.5312,4.5278,4.5336,4.5266,4.5344,4.5288,4.5306,4.5305,4.5309,4.5309,4.523,4.5342,4.5542,4.556,4.5313,4.5311,4.5309,0,4.5166,4.5228,4.5299,4.5309,4.5314,4.5348,4.5351,4.5359,4.538,4.5404,4.5416,4.5448,4.5463,4.5487,4.5462,4.5414,4.5542,4.5471,4.5533,4.5534,4.5559,4.5557,4.5761,4.5579,4.5579,4.5578,4.5578,0,4.5326,4.5393,4.5359,4.5403,4.5475,4.5442,4.5514,4.5511,4.5518,4.5559,4.5514,4.5553,4.5519,4.5554,4.5536,4.56,4.5609,4.5601,4.5594,4.5603,4.5603,4.5611,4.5599,4.5583,4.5582,4.5581,4.558,0,4.549,4.5471,4.5543,4.5541,4.5542,4.5595,4.5593,4.5632,4.5621,4.5672,4.5682,4.5665,4.5704,4.5682,4.5723,4.571,4.5793,4.5776,4.5788,4.5782,4.5844,4.5836,4.6055,4.6081,4.5887,4.5889,4.5891,0,4.5591,4.564,4.5643,4.5667,4.5673,4.5712,4.5733,4.5703,4.5726,4.5742,4.5778,4.5814,4.584,4.5905,4.5895,4.5925,4.5906,4.5981,4.591,4.5916,4.5902,4.5897,4.59,4.5994,4.5996,4.5998,4.5999,0,4.5771,4.5759,4.579,4.5818,4.5844,4.5864,4.5881,4.5903,4.5872,4.5901,4.594,4.596,4.6001,4.6035,4.6061,4.6063,4.6025,4.6022,4.6037,4.6044,4.6047,4.6041,4.5822,4.6016,4.6015,4.6014,4.6013,4.6012,4.5903,4.5943,4.595,4.5986,4.5995,4.6012,4.6047,4.604,4.6072,4.6101,4.6082,4.6127,4.6136,4.6166,4.6174,4.6208,4.6177,4.6201,4.6206,4.6211,4.6217,4.6045,4.6213,4.6213,4.6212,4.6212,4.6211,0,4.6077,4.6079,4.6112,4.6136,4.6163,4.6127,4.6143,4.6168,4.6208,4.622,4.6246,4.6289,4.6322,4.6315,4.6344,4.6373,4.6356,4.6381,4.6376,4.6377,4.6244,4.6226,4.6394,4.6394,4.6394,4.6394,4.6394,4.6394,4.617,4.6234,4.6222,4.629,4.6291,4.6334,4.6346,4.636,4.6368,4.6419,4.6445,4.6441,4.6444,4.6473,4.6501,4.6498,4.6508,4.6539,4.6529,4.6405,4.6387,4.6369,4.6352,4.6543,4.6543,4.6658,4.6659,4.666]},{"header":{"parameterUnit":"m.s-1","parameterCategory":1,"la1":30.2991,"la2":30.254,"lo1":-89.0895,"lo2":-89.0444,"dy":0.0017,"dx":0.0017,"nx":28,"ny":28,"refTime":"2023-08-14T03:00:00:Z","depth":0,"parameterNumber":3,"parameterNumberName":"V-component_of_WINDS"},"data":[0,0,0,0,0,0,0,0,0,0,0,0,0,0,0,0,0,0,0,0,0,0,0,0,0,0,0,0,0,0,0,0,0,0,0,0,0,0,0,0,0,0,0,0,0,0,0,0,0,0,0,0,0,0,0,0,0,0,3.4709,3.471,0,3.4786,3.4787,3.4787,3.4783,3.4782,3.4781,3.478,3.4853,3.4856,3.4859,0,0,0,0,0,0,0,0,0,0,0,0,0,3.4552,3.4555,3.4709,3.471,3.4711,3.4786,3.4787,3.4788,3.4783,3.4782,3.478,3.4779,3.4852,3.4855,3.4859,0,0,0,0,0,0,0,0,0,0,0,0,0,3.4623,3.4556,3.4709,3.4718,3.4719,3.4785,3.4787,3.4788,3.4783,3.4782,3.478,3.4778,3.4851,3.4855,3.4859,3.492,0,0,3.4873,3.4875,0,0,0,0,0,0,0,0,3.4619,3.4629,3.4715,3.4717,3.4719,3.4773,3.4758,3.4832,3.4784,3.4759,3.478,3.4778,3.4827,3.4834,3.4851,3.4924,3.4927,3.4874,3.4876,3.4878,3.4879,0,0,0,0,0,0,0,3.4614,3.4626,3.4739,3.4717,3.4719,3.4716,3.4724,3.4772,3.4801,3.4761,3.4761,3.477,3.4828,3.4847,3.4853,3.4928,3.4873,3.4877,3.488,3.4882,3.505,3.5052,0,0,0,0,0,0,3.4608,3.4622,3.4737,3.4742,3.4664,3.472,3.4729,3.4757,3.4801,3.4806,3.4771,3.477,3.484,3.4848,3.4856,3.4928,3.4878,3.4882,3.4885,3.5049,3.5051,3.5053,0,0,0,0,0,0,3.4605,3.4619,3.4734,3.4682,3.4696,3.4724,3.4756,3.476,3.4779,3.4809,3.4813,3.4786,3.4839,3.4849,3.4904,3.493,3.4884,3.4888,3.5046,3.5049,3.5052,3.5074,0,0,0,0,0,0,3.46,3.4617,3.4643,3.4682,3.4699,3.4783,3.4758,3.4762,3.4787,3.4786,3.4824,3.4829,3.4839,3.4897,3.4908,3.4936,3.4892,3.5044,3.5048,3.5051,3.5071,3.5077,3.5082,0,0,0,0,0,3.4595,3.4645,3.4644,3.4658,3.4731,3.4784,3.4794,3.4806,3.479,3.4814,3.4832,3.4827,3.4926,3.4903,3.4915,3.4944,3.5042,3.5047,3.5051,3.5068,3.5075,3.5082,0,0,0,0,0,0,3.4606,3.4651,3.465,3.4715,3.4746,3.4784,3.4815,3.4814,3.4849,3.4846,3.4858,3.4866,3.4921,3.4938,3.4912,3.5004,3.4982,3.4988,3.4991,3.4998,3.5003,3.4998,3.4896,0,0,0,0,0,3.4617,3.4658,3.4694,3.4748,3.4763,3.4786,3.481,3.4817,3.4849,3.4861,3.4884,3.4914,3.4951,3.4976,3.5012,3.5073,3.508,3.5099,3.5104,3.5109,3.5114,3.5145,3.5153,3.5066,3.5066,3.5066,0,0,3.4638,3.4667,3.4693,3.4751,3.4776,3.4816,3.4797,3.4841,3.4871,3.4868,3.492,3.4938,3.4972,3.5029,3.5056,3.5045,3.514,3.5114,3.5117,3.512,3.515,3.5158,3.5166,3.5069,3.5068,3.5068,0,0,3.4697,3.4725,3.4772,3.4797,3.4835,3.485,3.4861,3.4899,3.491,3.4964,3.4962,3.4996,3.5061,3.5084,3.5104,3.517,3.5166,3.5182,3.5211,3.5241,3.5248,3.5254,3.5275,3.5283,3.5187,3.5187,3.5187,0,3.4719,3.4782,3.4795,3.484,3.4864,3.4864,3.491,3.4933,3.4981,3.4996,3.4985,3.5065,3.5087,3.5149,3.5165,3.5182,3.5193,3.5177,3.5246,3.5252,3.5258,3.5279,3.5287,3.5189,3.5188,3.5188,3.5188,0,3.4804,3.4848,3.4881,3.4928,3.4956,3.5,3.5019,3.5045,3.5049,3.5064,3.5116,3.5144,3.5184,3.52,3.5203,3.5261,3.5253,3.5244,3.5222,3.5268,3.5287,3.5295,3.5191,3.519,3.519,3.5189,0,0,3.4874,3.4927,3.4939,3.4959,3.5001,3.5033,3.5077,3.5118,3.5139,3.5171,3.5206,3.526,3.5251,3.5274,3.528,3.5307,3.5355,3.5294,3.5294,3.5303,3.5417,3.5423,3.5433,3.5352,3.5354,3.5355,3.5414,0,3.4936,3.5016,3.5028,3.5097,3.5135,3.5135,3.5172,3.52,3.5215,3.5248,3.5263,3.5301,3.5287,3.53,3.5327,3.5343,3.5378,3.5339,3.5383,3.5384,3.5373,3.5443,3.545,3.5505,3.5422,3.5423,3.5424,0,3.502,3.5055,3.5128,3.5162,3.5179,3.5213,3.525,3.5283,3.5313,3.5321,3.5347,3.5349,3.5391,3.5368,3.5425,3.5398,3.5416,3.5427,3.5429,3.5433,3.5406,3.5447,3.5522,3.553,3.5437,3.5436,3.5435,0,3.5061,3.5127,3.5178,3.5196,3.5238,3.5261,3.5279,3.5308,3.5331,3.5363,3.5378,3.5414,3.5433,3.546,3.5471,3.5453,3.5526,3.5504,3.5532,3.5532,3.5547,3.5546,3.5625,3.5561,3.5561,3.5561,3.5561,0,3.5129,3.5172,3.5197,3.5228,3.5276,3.5289,3.5336,3.5353,3.5379,3.5411,3.5413,3.5443,3.5457,3.5488,3.5497,3.5541,3.555,3.5557,3.5558,3.5556,3.5555,3.5567,3.5563,3.5563,3.5562,3.5562,3.5562,0,3.5182,3.5201,3.5257,3.5292,3.5301,3.5335,3.5364,3.5393,3.5407,3.5448,3.5458,3.548,3.5517,3.5531,3.5576,3.5581,3.5632,3.5631,3.5622,3.5622,3.5649,3.5646,3.5738,3.575,3.5679,3.568,3.5681,0,3.5224,3.5258,3.5296,3.5319,3.5338,3.5375,3.5399,3.5412,3.5436,3.5472,3.5496,3.5534,3.5564,3.5623,3.5641,3.5675,3.5674,3.5704,3.5679,3.5675,3.5672,3.567,3.5672,3.5708,3.5709,3.5709,3.571,0,3.5295,3.5302,3.5337,3.5375,3.5403,3.5433,3.5462,3.548,3.5497,3.5524,3.5563,3.5586,3.5632,3.5668,3.5703,3.5719,3.5716,3.5718,3.5726,3.5723,3.5716,3.5718,3.5633,3.5715,3.5715,3.5714,3.5714,3.5714,3.5343,3.5372,3.5403,3.5441,3.5465,3.5491,3.552,3.5538,3.5571,3.561,3.5615,3.5656,3.5683,3.5729,3.5747,3.5777,3.5769,3.5781,3.5784,3.5786,3.5787,3.5712,3.5784,3.5784,3.5783,3.5783,3.5783,0,3.5412,3.5432,3.5467,3.5508,3.5537,3.5534,3.5566,3.559,3.5626,3.5653,3.5683,3.5726,3.576,3.5781,3.5815,3.5835,3.5835,3.5843,3.5841,3.5844,3.5794,3.5783,3.5843,3.5843,3.5843,3.5843,3.5843,3.5843,3.5451,3.55,3.5511,3.557,3.5589,3.563,3.5648,3.5671,3.5692,3.5741,3.577,3.5784,3.5807,3.5842,3.5873,3.5878,3.5889,3.5899,3.5903,3.5855,3.5848,3.5842,3.5832,3.5902,3.5902,3.5951,3.5951,3.5951]}]]